Weather History for Taylorville, IL

Change the Weather History Date:

Wednesday, May 15, 2013

  Actual Average (KSPI) Record (KSPI)
Temperature  
Mean Temperature 76 °F 63 °F  
Max Temperature 89 °F 75 °F 91 °F (1962)
Min Temperature 64 °F 52 °F 36 °F (1973)
Cooling Degree Days 12 3  
Month to date cooling degree days 25  
Year to date cooling degree days 45  
Growing Degree Days 26 (Base 50)    
Moisture  
Dew Point 56 °F    
Average Humidity 50    
Maximum Humidity 73    
Minimum Humidity 33    
Precipitation  
Precipitation 0.00 in 0.13 in 3.46 in (1990)
Month to date precipitation 2.01  
Year to date precipitation 11.78  
Snow  
Snow 0.00 in 0.00 in 0.00 in ()
Month to date snowfall 0.0  
Since 1 July snowfall 20.9  
Snow Depth -    
Sea Level Pressure  
Sea Level Pressure 29.85 in    
Wind  
Wind Speed 13 mph (SW)    
Max Wind Speed 20 mph    
Max Gust Speed 26 mph    
Visibility 10 miles    
Events Thunderstorm    
T = Trace of Precipitation, MM = Missing Value Source: NWS Daily Summary

Daily Weather History Graph

Daily Weather History Graph

Search for Another Location

Airport:

Trip Planner

Search our weather history database for the weather conditions in past years. The results will help you decide how hot, cold, wet, or windy it might be!

Date:

Astronomy

May. 15, 2013 Rise Set
Actual Time 5:43 AM CDT 8:04 PM CDT
Civil Twilight 5:12 AM CDT 8:35 PM CDT
Nautical Twilight 4:35 AM CDT 9:13 PM CDT
Astronomical Twilight 3:53 AM CDT 9:54 PM CDT
Moon 10:18 AM CDT (5/15) No Moon Set
Length of Visible Light 15h 22m
Length of Day
14h 21m
Waxing Crescent, 27% of the Moon is Illuminated
May 15
Waxing Crescent
May 17
First Quarter
May 24
Full
May 31
Last Quarter
Jun 8
New

Hourly Weather History & Observations

Time (CDT) Temp. Heat Index Dew Point Humidity Pressure Visibility Wind Dir Wind Speed Gust Speed Precip Events Conditions
12:15 AM 73.4 °F - 50.0 °F 44% 29.82 in 10.0 mi SW 16.1 mph - N/A   Clear
12:35 AM 73.4 °F - 48.2 °F 41% 29.82 in 10.0 mi SW 16.1 mph 23.0 mph N/A   Clear
12:55 AM 73.4 °F - 48.2 °F 41% 29.82 in 10.0 mi SW 13.8 mph 20.7 mph N/A   Clear
1:15 AM 71.6 °F - 50.0 °F 46% 29.83 in 10.0 mi SW 12.7 mph 17.3 mph N/A   Clear
1:35 AM 71.6 °F - 50.0 °F 46% 29.83 in 10.0 mi SW 12.7 mph - N/A   Clear
1:55 AM 69.8 °F - 50.0 °F 49% 29.83 in 10.0 mi SW 12.7 mph 19.6 mph N/A   Clear
2:15 AM 69.8 °F - 50.0 °F 49% 29.83 in 10.0 mi SW 12.7 mph - N/A   Clear
2:35 AM 69.8 °F - 50.0 °F 49% 29.83 in 10.0 mi SW 12.7 mph - N/A   Clear
2:55 AM 69.8 °F - 50.0 °F 49% 29.84 in 10.0 mi SW 12.7 mph - N/A   Clear
3:15 AM 69.8 °F - 50.0 °F 49% 29.84 in 10.0 mi SW 12.7 mph 18.4 mph N/A   Clear
3:35 AM 69.8 °F - 50.0 °F 49% 29.85 in 10.0 mi SW 12.7 mph 17.3 mph N/A   Clear
3:55 AM 68.0 °F - 51.8 °F 56% 29.85 in 10.0 mi SW 10.4 mph - N/A   Clear
4:15 AM 68.0 °F - 51.8 °F 56% 29.86 in 10.0 mi SW 9.2 mph - N/A   Clear
4:35 AM 66.2 °F - 51.8 °F 60% 29.87 in 10.0 mi SW 11.5 mph - N/A   Clear
4:55 AM 66.2 °F - 51.8 °F 60% 29.87 in 10.0 mi SW 10.4 mph - N/A   Clear
5:15 AM 64.4 °F - 51.8 °F 64% 29.87 in 10.0 mi SW 10.4 mph - N/A   Clear
5:35 AM 64.4 °F - 51.8 °F 64% 29.88 in 10.0 mi SW 12.7 mph 16.1 mph N/A   Clear
5:55 AM 64.4 °F - 51.8 °F 64% 29.88 in 10.0 mi SW 13.8 mph - N/A   Clear
6:15 AM 66.2 °F - 51.8 °F 60% 29.89 in 10.0 mi SW 13.8 mph - N/A   Clear
6:35 AM 66.2 °F - 51.8 °F 60% 29.89 in 10.0 mi SW 15.0 mph - N/A   Clear
6:55 AM 68.0 °F - 51.8 °F 56% 29.90 in 10.0 mi SW 15.0 mph - N/A   Clear
7:15 AM 69.8 °F - 53.6 °F 56% 29.90 in 10.0 mi SW 13.8 mph 20.7 mph N/A   Clear
7:35 AM 71.6 °F - 53.6 °F 53% 29.90 in 10.0 mi SW 16.1 mph 21.9 mph N/A   Clear
7:55 AM 71.6 °F - 53.6 °F 53% 29.90 in 10.0 mi SW 15.0 mph 20.7 mph N/A   Clear
8:15 AM 71.6 °F - 53.6 °F 53% 29.90 in 10.0 mi WSW 12.7 mph 18.4 mph N/A   Clear
8:35 AM 73.4 °F - 53.6 °F 50% 29.91 in 10.0 mi WSW 18.4 mph 24.2 mph N/A   Clear
8:55 AM 73.4 °F - 53.6 °F 50% 29.91 in 10.0 mi WSW 16.1 mph 24.2 mph N/A   Clear
9:15 AM 75.2 °F - 53.6 °F 47% 29.91 in 10.0 mi WSW 17.3 mph 26.5 mph N/A   Clear
9:35 AM 75.2 °F - 53.6 °F 47% 29.90 in 10.0 mi West 18.4 mph 23.0 mph N/A   Clear
9:55 AM 77.0 °F - 53.6 °F 44% 29.90 in 10.0 mi WSW 18.4 mph 24.2 mph N/A   Clear
10:15 AM 78.8 °F - 53.6 °F 42% 29.89 in 10.0 mi WSW 19.6 mph 25.3 mph N/A   Clear
10:35 AM 78.8 °F - 55.4 °F 44% 29.89 in 10.0 mi WSW 18.4 mph 21.9 mph N/A   Clear
10:55 AM 80.6 °F 80.5 °F 55.4 °F 42% 29.89 in 10.0 mi WSW 16.1 mph - N/A   Clear
11:15 AM 80.6 °F 80.5 °F 55.4 °F 42% 29.89 in 10.0 mi WSW 15.0 mph 20.7 mph N/A   Clear
11:35 AM 82.4 °F 81.7 °F 55.4 °F 39% 29.89 in 10.0 mi WSW 17.3 mph 23.0 mph N/A   Clear
11:55 AM 82.4 °F 81.7 °F 55.4 °F 39% 29.88 in 10.0 mi West 16.1 mph - N/A   Clear
12:15 PM 82.4 °F 82.0 °F 57.2 °F 42% 29.87 in 10.0 mi SW 13.8 mph 24.2 mph N/A   Clear
12:35 PM 82.4 °F 82.0 °F 57.2 °F 42% 29.87 in 10.0 mi SW 16.1 mph 19.6 mph N/A   Clear
12:55 PM 82.4 °F 82.0 °F 57.2 °F 42% 29.86 in 10.0 mi WSW 13.8 mph - N/A   Clear
1:15 PM 84.2 °F 83.5 °F 57.2 °F 40% 29.86 in 10.0 mi SW 15.0 mph - N/A   Clear
1:35 PM 84.2 °F 83.5 °F 57.2 °F 40% 29.86 in 10.0 mi WSW 16.1 mph - N/A   Clear
1:55 PM 84.2 °F 83.5 °F 57.2 °F 40% 29.85 in 10.0 mi WSW 10.4 mph - N/A   Clear
2:15 PM 86.0 °F 84.9 °F 57.2 °F 37% 29.85 in 10.0 mi West 13.8 mph 17.3 mph N/A   Clear
2:35 PM 86.0 °F 84.9 °F 57.2 °F 37% 29.84 in 10.0 mi West 8.1 mph 19.6 mph N/A   Clear
2:55 PM 87.8 °F 86.5 °F 57.2 °F 35% 29.83 in 10.0 mi West 13.8 mph 18.4 mph N/A   Clear
3:15 PM 87.8 °F 86.5 °F 57.2 °F 35% 29.83 in 10.0 mi West 11.5 mph - N/A   Clear
3:35 PM 87.8 °F 86.5 °F 57.2 °F 35% 29.83 in 10.0 mi West 12.7 mph - N/A   Clear
3:55 PM 89.6 °F 88.9 °F 59.0 °F 36% 29.82 in 10.0 mi West 12.7 mph 18.4 mph N/A   Clear
4:15 PM 89.6 °F 88.1 °F 57.2 °F 33% 29.82 in 10.0 mi WSW 10.4 mph 18.4 mph N/A   Scattered Clouds
4:35 PM 87.8 °F 86.5 °F 57.2 °F 35% 29.81 in 10.0 mi West 12.7 mph 18.4 mph N/A   Scattered Clouds
4:55 PM 87.8 °F 86.5 °F 57.2 °F 35% 29.81 in 10.0 mi WSW 9.2 mph 18.4 mph N/A   Scattered Clouds
5:15 PM 87.8 °F 86.5 °F 57.2 °F 35% 29.81 in 10.0 mi WSW 12.7 mph - N/A   Scattered Clouds
5:35 PM 87.8 °F 87.1 °F 59.0 °F 38% 29.81 in 10.0 mi West 9.2 mph - N/A   Scattered Clouds
5:55 PM 84.2 °F 83.8 °F 59.0 °F 42% 29.80 in 10.0 mi WSW 10.4 mph - N/A   Scattered Clouds
6:15 PM 86.0 °F 85.4 °F 59.0 °F 40% 29.80 in 10.0 mi WSW 8.1 mph - N/A   Scattered Clouds
6:35 PM 86.0 °F 85.4 °F 59.0 °F 40% 29.80 in 10.0 mi West 8.1 mph - N/A   Scattered Clouds
6:55 PM 84.2 °F 84.4 °F 60.8 °F 45% 29.80 in 10.0 mi WSW 4.6 mph - N/A   Scattered Clouds
7:15 PM 82.4 °F 82.9 °F 60.8 °F 48% 29.80 in 10.0 mi SW 5.8 mph - N/A   Mostly Cloudy
7:35 PM 80.6 °F 81.1 °F 59.0 °F 48% 29.80 in 10.0 mi SSW 6.9 mph - N/A   Scattered Clouds
7:55 PM 78.8 °F - 60.8 °F 54% 29.81 in 10.0 mi South 11.5 mph 19.6 mph N/A   Clear
8:15 PM 77.0 °F - 62.6 °F 61% 29.82 in 10.0 mi South 11.5 mph - N/A   Clear
8:35 PM 75.2 °F - 62.6 °F 65% 29.82 in 10.0 mi South 12.7 mph - N/A   Clear
8:55 PM 75.2 °F - 62.6 °F 65% 29.83 in 10.0 mi South 11.5 mph - N/A   Clear
9:15 PM 73.4 °F - 62.6 °F 69% 29.83 in 10.0 mi South 10.4 mph - N/A   Clear
9:35 PM 73.4 °F - 62.6 °F 69% 29.83 in 10.0 mi South 13.8 mph - N/A   Clear
9:55 PM 73.4 °F - 62.6 °F 69% 29.83 in 10.0 mi South 12.7 mph - N/A   Scattered Clouds
10:15 PM 71.6 °F - 62.6 °F 73% 29.83 in 10.0 mi South 11.5 mph - N/A   Clear
10:35 PM 71.6 °F - 62.6 °F 73% 29.83 in 10.0 mi South 12.7 mph 18.4 mph N/A   Scattered Clouds
10:55 PM 71.6 °F - 62.6 °F 73% 29.83 in 10.0 mi SSW 11.5 mph - N/A Thunderstorm Thunderstorm
11:15 PM 71.6 °F - 62.6 °F 73% 29.84 in 10.0 mi SSW 10.4 mph - N/A   Scattered Clouds
11:35 PM 71.6 °F - 62.6 °F 73% 29.84 in 10.0 mi SW 13.8 mph - N/A   Scattered Clouds
11:55 PM 73.4 °F - 62.6 °F 69% 29.86 in 10.0 mi SW 11.5 mph - N/A   Clear